Location: El Diablo
(32.4667°N, 116.4500°W)
Time: 02:23:51
(UTC+00:00)

Atlas Centaur 2 - Pass Details

Date: 10 September 2024
Orbit: 457 x 1270 km, 30.4° (Epoch: 06 October)

Event Time Altitude Azimuth Distance (km) Brightness Sun altitude
Exits shadow 12:58:14 - 254° (WSW) 2,596 4.1 -6.8°
Reaches altitude 10° 12:58:41 10° 253° (WSW) 2,438 3.9 -6.7°
Maximum altitude 13:04:35 70° 171° (S) 1,039 2.7 -5.5°
Drops below altitude 10° 13:11:58 10° 89° (E) 3,016 7.0 -3.9°
Sets 13:15:03 0° 88° (E) 4,070 8.6 -3.3°
